Hourly Data Report for December 16, 2021

TORONTO CITY
ONTARIO
Current Station Operator: ECCC - MSC

43°40'00.000" N
79°24'00.000" W
112.50 m
6158355
71508
XTO

Download Data

Hourly Data (December 2021)
Hourly Data Report for December 16, 2021
TIME
LST
Temp Definition
°C
Dew Point Definition
°C
Rel Hum Definition
%
Precip. Amount Definition
mm

Wind Dir Definition
10's deg

Wind Spd Definition
km/h
Visibility Definition
km
Stn Press Definition
kPa
Hmdx Definition


Wind Chill Definition


Weather Definition


00:00 11.1 3.1 58 0.0       99.94     LegendNANA
01:00 11.6 2.8 55 0.0       99.89     LegendNANA
02:00 12.2 2.1 50 0.0       99.86     LegendNANA
03:00 12.6 1.1 45 0.0       99.72     LegendNANA
04:00 12.5 0.6 44 0.0       99.60     LegendNANA
05:00 12.6 0.5 44 0.0       99.55     LegendNANA
06:00 12.9 0.9 44 0.0       99.49     LegendNANA
07:00 12.6 1.5 47 0.0       99.44     LegendNANA
08:00 13.2 2.0 46 0.0       99.40     LegendNANA
09:00 12.5 3.2 53 0.0       99.28     LegendNANA
10:00 13.0 5.6 61 0.0       99.17     LegendNANA
11:00 13.3 7.1 66 0.0       99.13     LegendNANA
12:00 13.6 8.1 69 0.0       99.06     LegendNANA
13:00 13.7 8.7 72 0.0       98.96     LegendNANA
14:00 13.5 9.9 79 0.0       98.97     LegendNANA
15:00 13.3 10.1 81 0.0       98.97     LegendNANA
16:00 13.0 9.6 80 0.0       98.89     LegendNANA
17:00 13.8 9.7 76 0.0       98.90     LegendNANA
18:00 14.2 9.1 71 0.0       98.89     LegendNANA
19:00 13.7 8.0 69 0.0       98.93     LegendNANA
20:00 13.1 7.2 67 0.0       99.07     LegendNANA
21:00 11.3 -1.8 40 0.0       99.26     LegendNANA
22:00 7.8 -1.6 51 0.0       99.47     LegendNANA
23:00 6.3 -2.4 54 0.0       99.60     LegendNANA

Notes on Data Quality.

Legend

  • E = Estimated
  • M = Missing
  • NA = Not Available*
  • [empty] = Indicates an unobserved value
Date modified: